Location: Roswell
(33.3943°N, 104.5230°W)
Time: 14:45:48
(UTC+00:00)

Vanguard 2 Rocket - Pass Details

Date: 18 November 2024
Orbit: 554 x 3296 km, 32.9° (Epoch: 30 November)

Event Time Altitude Azimuth Distance (km) Brightness Sun altitude
Exits shadow 10:26:39 17° 181° (S) 3,139 9.5 -38.7°
Maximum altitude 10:32:28 29° 135° (SE) 3,027 9.7 -37.5°
Drops below altitude 10° 10:44:06 10° 83° (E) 5,361 11.6 -35.1°
Sets 10:49:53 0° 75° (ENE) 6,768 12.3 -33.8°
